FW9985 Weather Reports


Display with metric or nautical units.
time (UTC)temp
F
wind
direction
speed
MPH
gust
MPH
rain 1hr
in
rain 24hr
in
rain mn
in
humidity
%
barometer
mb
20260504041540 50 221 2.0 4.0 0.00 0.00 0.00 60 1013.1
20260504040039 50 221 2.0 5.0 0.00 0.00 0.00 58 1013.3
20260504034529 51 241 2.0 7.0 0.00 0.00 0.00 57 1013.4
20260504033030 51 256 3.0 6.0 0.00 0.00 0.00 57 1013.4
20260504031528 50 296 3.0 7.0 0.00 0.00 0.00 56 1013.5
20260504030035 50 270 4.0 9.0 0.00 0.00 0.00 55 1013.6
20260504024531 50 273 7.0 10.0 0.00 0.00 0.00 56 1013.7
20260504023031 49 234 5.0 11.0 0.00 0.00 0.00 58 1013.8
20260504021528 48 215 3.0 4.0 0.00 0.00 0.00 58 1013.5
20260504020036 49 215 3.0 4.0 0.00 0.00 0.00 56 1013.4
20260504014531 51 215 2.0 5.0 0.00 0.00 0.00 52 1013.5
20260504013032 51 215 2.0 5.0 0.00 0.00 0.00 51 1013.3
20260504011528 52 215 3.0 5.0 0.00 0.00 0.00 50 1013.3
20260504010030 53 222 4.0 7.0 0.00 0.00 0.00 48 1013.3
20260504004528 54 238 3.0 7.0 0.00 0.00 0.00 47 1013.3
20260504003028 54 237 4.0 9.0 0.00 0.00 0.00 45 1013.2
20260504001535 55 244 5.0 13.0 0.00 0.00 0.00 45 1013.2
20260504000029 55 274 5.0 15.0 0.00 0.00 0.00 44 1013.3
20260503234616 56 246 7.0 14.0 0.00 0.00 0.00 44 1013.6
20260503233030 56 246 10.0 18.0 0.00 0.00 0.00 43 1013.5
20260503231532 56 236 10.0 19.0 0.00 0.00 0.00 43 1013.5
20260503230038 57 265 11.0 20.0 0.00 0.00 0.00 42 1013.6
20260503224530 57 245 11.0 23.0 0.00 0.00 0.00 42 1013.5
20260503223028 57 258 12.0 21.0 0.00 0.00 0.00 41 1013.7
20260503221530 57 275 13.0 20.0 0.00 0.00 0.00 42 1013.8
20260503220030 58 234 12.0 19.0 0.00 0.00 0.00 41 1013.8
20260503214537 58 228 12.0 19.0 0.00 0.00 0.00 41 1013.9
20260503213031 58 247 8.0 16.0 0.00 0.00 0.00 40 1013.8
20260503211532 58 267 8.0 14.0 0.00 0.00 0.00 41 1013.8
20260503210028 57 304 5.0 23.0 0.00 0.00 0.00 42 1013.7
20260503204529 58 240 12.0 19.0 0.00 0.00 0.00 40 1013.7
20260503203035 59 304 11.0 18.0 0.00 0.00 0.00 40 1013.9
20260503201530 58 305 13.0 21.0 0.00 0.00 0.00 39 1014.1
20260503200029 59 261 8.0 21.0 0.00 0.00 0.00 38 1014.3
20260503194528 58 232 11.0 25.0 0.00 0.00 0.00 38 1014.7
20260503193042 59 252 11.0 20.0 0.00 0.00 0.00 38 1014.7
20260503191559 58 257 10.0 20.0 0.00 0.00 0.00 38 1015.1
20260503190035 59 246 13.0 22.0 0.00 0.00 0.00 39 1015.2
20260503184529 58 278 13.0 22.0 0.00 0.00 0.00 40 1015.4
20260503183029 58 246 12.0 23.0 0.00 0.00 0.00 38 1015.6
20260503181541 58 240 13.0 19.0 0.00 0.00 0.00 42 1015.8
20260503180030 58 260 11.0 20.0 0.00 0.00 0.00 40 1015.9
20260503174532 56 297 9.0 19.0 0.00 0.00 0.00 44 1016.1
20260503173030 56 262 7.0 18.0 0.00 0.00 0.00 46 1016.2
20260503171528 56 295 11.0 24.0 0.00 0.00 0.00 45 1016.5
20260503081535 34 0 0.0 0.0 0.00 0.00 0.00 88 1016.6
20260503071530 36 0 0.0 2.0 0.00 0.00 0.00 88 1016.4
20260503054543 36 0 0.0 1.0 0.00 0.00 0.00 88 1016.5
20260503053031 37 0 0.0 3.0 0.00 0.00 0.00 88 1016.6
20260503051529 37 0 0.0 1.0 0.00 0.00 0.00 88 1016.7
20260503050033 37 0 0.0 2.0 0.00 0.00 0.00 88 1016.8
20260503044538 36 308 0.0 1.0 0.00 0.00 0.00 89 1016.9
20260503043036 36 0 0.0 1.0 0.00 0.00 0.00 88 1016.9